OBJECT J, 42833

Orbit data source: Space-Track

You're viewing an Uncataloged Satellite

Recently launched and/or uncataloged satellites may have evolving metadata. Metadata may include but not limited to: Owner, Maufacturer, Bus, Motor, and Mission.

OBJECT J, 42833 is a satellite in SSO that was launched on Fri, 14 Jul 2017 UTC launched from the Tyuratam Missile And Space Complex (TTMTR). Unknown objects in Earth's orbit typically refer to objects detected orbiting the Earth but have not yet been identified or cataloged. These objects could be anything from previously untracked satellites, spent rocket stages, debris from satellite collisions, or even natural meteoroids temporarily captured by Earth's gravity.

Loading next visibility...
Identifier
42833, 2017-042J
Orbit
SSO
Country
Flag of TBDTBD
Related business
Manufacturer
Unknown
Mission
Non-operational spacecraft
Bus & Motor
Unknown
Mass
Unknown
Launch date (UTC)
2017-07-14 (9 years ago)
Launch vehicle
Unknown
Launch site
Tyuratam Missile And Space Complex (TTMTR)
Object type
Unknown
Shape & HBR
Unknown shape, 0.1 m
Radar Cross Section
Small (<0.1 m²)

Expand to show TLE details & history
Last TLE update: 11 hours ago

TLE from 11 hours ago
0 OBJECT J
1 42833U 17042J   26034.39863204  .00007351  00000-0  48488-3 0  9995
2 42833  97.4187 201.6582 0006278 187.1807 172.9333 15.07734697466842
Epoch: 2026-02-03T09:34Z
TLE epoch observation values (Epoch: 2026-02-03T09:34:01.808Z)
Latitude
0.00004°
Longitude
-75.42947°
Altitude
550.51 km
Speed
7.584 km/s
True Right ascension
13h 26m 37s
True Declination
0° 00' 00"
Sunlit
Object was in full shadow at epoch
Visualization orbit readout
Latitude
Unknown
Longitude
Unknown
Altitude
Unknown
Speed
Unknown
Apparent Right ascension
Unknown
Apparent Declination
Unknown
Sunlit
N/A
Visualization observer readout
Local Sidereal Time
22:51:09
Azimuth
Unknown
Elevation
Unknown
Doppler factor
Unknown
Orbital elements
Apogee altitude
544.45 km
Perigee altitude
535.763 km
Semi-major axis
6,918.244 km
Eccentricity
0.00063
Inclination
97.4187°
RAAN
201.6582°
Arg. of periapsis
187.1807°
True anomaly
172.94214°
Mean anomaly
172.9333°
Eccentric anomaly
172.93772°
Mean motion
3.77181 °/min
Orbital period
95.44 mins
BSTAR
0.00048488
Loading maneuver chart data...
Computing Atmospheric mass density...
Loading historical data...
Loading historical data...
Loading historical data...
Loading historical data...
Loading historical data...
Loading historical data...
Loading historical data...

Documentation

Showing up to 5 results
|